Change the Weather History Date:

Monday, January 14, 2013

  Actual Average Record
Temperature  
Mean Temperature 3 °F -  
Max Temperature 19 °F 43 °F 57 °F (1999)
Min Temperature -13 °F 15 °F -13 °F (2013)
Degree Days  
Heating Degree Days 62    
Moisture  
Dew Point -7 °F    
Average Humidity 59    
Maximum Humidity 75    
Minimum Humidity 33    
Precipitation  
Precipitation 0.00 in - - ()
Sea Level Pressure  
Sea Level Pressure 30.22 in    
Wind  
Wind Speed 5 mph (NE)    
Max Wind Speed 9 mph    
Max Gust Speed -    
Visibility 10 miles    
Events      
Averages and records for this station are not official NWS values.
T = Trace of Precipitation, MM = Missing Value Source: NWS Daily Summary

Daily Weather History Graph

Daily Weather History Graph

Search for Another Location

Airport or City:

Trip Planner

Search our weather history database for the weather conditions in past years. The results will help you decide how hot, cold, wet, or windy it might be!

Date:

Astronomy

Jan. 14, 2013 Rise Set
Actual Time 7:38 AM MST 5:37 PM MST
Civil Twilight 7:10 AM MST 6:05 PM MST
Nautical Twilight 6:39 AM MST 6:36 PM MST
Astronomical Twilight 6:08 AM MST 7:07 PM MST
Moon 9:21 AM MST (1/14) 9:18 PM MST (1/14)
Length of Visible Light 10h 54m
Length of Day
9h 58m
Waxing Crescent, 12% of the Moon is Illuminated
Jan 14
Waxing Crescent
Jan 18
First Quarter
Jan 26
Full
Feb 3
Last Quarter
Feb 10
New

Hourly Weather History & Observations

Time (MST) Temp. Windchill Dew Point Humidity Pressure Visibility Wind Dir Wind Speed Gust Speed Precip Events Conditions
12:54 AM 7.0 °F -3.3 °F -0.9 °F 70% 30.05 in 10.0 mi ENE 5.8 mph - N/A   Overcast
1:54 AM 9.0 °F -4.2 °F -0.9 °F 64% 30.05 in 10.0 mi ENE 9.2 mph - N/A   Overcast
3:54 AM 8.1 °F -3.2 °F -0.0 °F 70% 30.06 in 10.0 mi NE 6.9 mph - N/A   Overcast
4:54 AM 9.0 °F -4.2 °F -0.0 °F 67% 30.06 in 10.0 mi NE 9.2 mph - N/A   Overcast
5:54 AM 9.0 °F -2.2 °F -0.0 °F 67% 30.09 in 10.0 mi NNE 6.9 mph - N/A   Overcast
6:54 AM 9.0 °F 2.4 °F -0.0 °F 67% 30.17 in 10.0 mi East 3.5 mph - N/A   Overcast
7:54 AM 6.1 °F - -2.0 °F 69% 30.21 in 10.0 mi Calm Calm - N/A   Overcast
8:54 AM 7.0 °F - -2.0 °F 67% 30.23 in 10.0 mi Calm Calm - N/A   Clear
9:54 AM 10.0 °F -2.9 °F -4.0 °F 53% 30.25 in 10.0 mi NE 9.2 mph - N/A   Partly Cloudy
10:54 AM 15.1 °F 7.7 °F -5.1 °F 41% 30.21 in 10.0 mi NE 4.6 mph - N/A   Clear
11:54 AM 16.0 °F 8.8 °F -7.1 °F 36% 30.17 in 10.0 mi NE 4.6 mph - N/A   Clear
12:54 PM 16.0 °F 8.8 °F -7.1 °F 36% 30.13 in 10.0 mi ENE 4.6 mph - N/A   Clear
1:54 PM 18.0 °F 12.7 °F -0.9 °F 44% 30.12 in 10.0 mi Variable 3.5 mph - N/A   Partly Cloudy
3:54 PM 19.0 °F 8.2 °F -6.0 °F 33% 30.16 in 10.0 mi NE 9.2 mph - N/A   Clear
4:54 PM 17.1 °F 7.6 °F -6.0 °F 36% 30.20 in 10.0 mi NNE 6.9 mph - N/A   Clear
5:54 PM 9.0 °F - -7.1 °F 48% 30.27 in 10.0 mi Calm Calm - N/A   Clear
6:54 PM -4.0 °F - -11.0 °F 72% 30.35 in 10.0 mi Calm Calm - N/A   Clear
7:54 PM -7.1 °F - -14.1 °F 72% 30.40 in 10.0 mi Calm Calm - N/A   Clear
8:54 PM -8.0 °F - -15.0 °F 71% 30.43 in 10.0 mi Calm Calm - N/A   Clear
9:54 PM -11.0 °F - -17.0 °F 75% 30.41 in 10.0 mi Calm Calm - N/A   Clear
10:54 PM -13.0 °F -28.6 °F -20.0 °F 71% 30.40 in 10.0 mi NE 6.9 mph - N/A   Clear
11:54 PM -13.0 °F -25.1 °F -20.0 °F 71% 30.39 in 10.0 mi ENE 4.6 mph - N/A   Clear